Location: Bun Machan
(52.1403°N, 7.3744°W)
Time: 01:42:40
(UTC+00:00)

BREEZE-M TANK - Pass Details

Date: 14 July 2020
Orbit: 490 x 24796 km, 45.2° (Epoch: 10 August)

Event Time Altitude Azimuth Distance (km) Brightness Sun altitude
Exits shadow 03:36:30 - 235° (SW) 1,863 4.4 -6.4°
Reaches altitude 10° 03:36:54 10° 232° (SW) 1,678 4.1 -6.3°
Maximum altitude 03:39:40 31° 165° (SSE) 1,024 3.4 -6.0°
Drops below altitude 10° 03:44:10 10° 102° (ESE) 2,788 6.4 -5.6°
Sets 03:48:46 0° 93° (E) 5,024 7.9 -5.1°
